Regional Weather Roundup
Issued by NWS Sioux Falls, SD

Home | Current Version | Previous Version | Graphics & Text | Print | Product List | Glossary On
Versions: 1 2 3 4 5 6 7 8 9 10 11 12 13 14 15 16 17 18 19 20 21 22 23 24 25 26 27 28 29 30 31 32 33 34 35 36 37 38 39 40 41 42 43 44 45 46 47 48 49 50
000
ASUS43 KFSD 301002
RWRFSD

WEATHER ROUNDUP FOR SE SOUTH DAKOTA/SW MINNESOTA/NW IOWA
NATIONAL WEATHER SERVICE SIOUX FALLS SD
500 AM CDT SUN AUG 30 2015

NOTE: "FAIR" INDICATES FEW OR NO CLOUDS BELOW 12,000 FEET WITH NO
SIGNIFICANT WEATHER AND OR OBSTRUCTIONS TO VISIBILITY.


SDZ038>040-050-052>070-301100-
SOUTHEAST SOUTH DAKOTA

CITY           SKY/WX    TMP DP  RH WIND       PRES   REMARKS
BROOKINGS      CLOUDY    63  57  82 S12       29.98S
CHAMBERLAIN    CLEAR     66  61  83 S5        29.90S
HURON          CLEAR     65  63  93 S10       29.89S
MADISON        CLOUDY    59  59 100 S10       29.97S
MITCHELL       CLEAR     64  63  96 S9        29.92F
SIOUX FALLS    CLOUDY    62  60  93 S13       29.98F FOG
WINNER         FAIR      71  58  63 S20       29.90S
YANKTON        CLOUDY    64  63  94 S6        29.96S
$$

MNZ071-072-080-081-089-090-097-098-301100-
SOUTHWEST MINNESOTA

CITY           SKY/WX    TMP DP  RH WIND       PRES   REMARKS
FAIRMONT       CLOUDY    63  55  77 S10       30.02S
JACKSON        CLOUDY    61  61 100 SW7       30.03S FOG
LUVERNE        CLOUDY    63  61  94 S9        30.01S FOG
MARSHALL       PTCLDY    63  55  77 S8        29.96F
MONTEVIDEO     CLEAR     61  61 100 S8        29.95S FOG
PIPESTONE      CLOUDY    63  61  94 SW13      29.99S FOG
REDWOOD FALLS  CLOUDY    63  61  93 S12       29.97S
TRACY          MOCLDY    63  61  94 S8        29.98S
WINDOM         CLOUDY    61  59  94 S13       30.01S
WORTHINGTON    CLOUDY    61  57  88 SW12G17   30.01S
$$

IAZ001>003-012>014-020>022-031-032-NEZ013-014-SDZ071-301100-
NORTHWEST IOWA

CITY           SKY/WX    TMP DP  RH WIND       PRES   REMARKS
DENISON        CLOUDY    64  63  94 S5        30.02S
ESTHERVILLE    CLOUDY    60  60 100 SW9       30.03R
SIOUX CITY     NOT AVBL
SPENCER        CLOUDY    62  59  90 S9        30.03S
$$

ABBREVIATIONS USED IN REMARKS
   TC - TEMPERATURE IN CELSIUS
  WCI - WIND CHILL INDEX
   HX - HEAT INDEX
  VSB - VISIBILITY



USA.gov is the U.S. government's official web portal to all federal, state and local government web resources and services.